User: anonymous   Login
Location: Six Mile Lake
(44.9000°N, 79.7170°W)
Time: 23:01:51
(UTC-04:00)
Language:

FALCONSAT 3 - Orbit

View from above orbital plane
View from above orbital plane
View from above satellite
View from above satellite

Ground track
Ground track

The orbit data is extracted from the following two-line orbital elements,

1 30776U 07006E   22178.41209813  .00029220  00000-0  43539-3 0  9996
2 30776  35.4293 195.0006 0003584 197.6090 162.4519 15.54109185851139
Epoch (UTC): 27 June 2022 09:53:25
Eccentricity: 0.0003584
inclination: 35.4293°
perigee height: 402 km
apogee height: 407 km
right ascension of ascending node: 195.0006°
argument of perigee: 197.6090°
revolutions per day: 15.54109185
mean anomaly at epoch: 162.4519°
orbit number at epoch: 85113

The dashed part of the orbit path shows where the satellite is in the earth's shadow,  

DLR